Showing default

AL YAH 3, 43174

Orbit data source: Space-Track

AL YAH 3, 43174 is a payload satellite owned by Yahsat Brasil (AE) in GEO that was launched on Thu, 25 Jan 2018 UTC via an ARIANE 5ECA launch vehicle from the French Guiana (FRGUI). Payload-class satellites include a variety of spacecraft equipped with specific instruments for various scientific and technological missions. These include communications satellites like Starlink; space stations such as the ISS; scientific satellites like the Hubble; Earth observation satellites from companies like Planet Labs, Umbra, and HawkEye 360; GPS; miniature CubeSats for education and research; and military/defense satellites.

Not visible in the next 10 days
Identifier
43174, 2018-012A
Orbit
GEO
Country
Flag of AEAE / UAE
Related business
Manufacturer
OATK SSG
Mission
Operational Commercial Communications
Bus & Motor
STAR-2.3?, IHI BT-4
Mass
3,795 kg wet, ~2,500 kg dry
Launch date (UTC)
2018-01-25 (8 years ago)
Launch vehicle
ARIANE 5ECA
Launch site
French Guiana (FRGUI)
Object type
Payload
Rocket body
Debris
Shape & HBR
Box + 2 Pan, 9.0 m
Radar Cross Section
20.597 m², Large (>1 m²)

Expand to show TLE details & history
Last TLE update: 14 hours ago

TLE from 14 hours ago
0 AL YAH 3
1 43174U 18012A   25261.26041380 -.00000175  00000-0  00000-0 0  9995
2 43174   0.8443  86.5365 0002893  90.1717 254.3757  1.00271791 28113
Epoch: 2025-09-18T06:14Z
TLE epoch observation values (Epoch: 2025-09-18T06:14:59.752Z)
Latitude
-0.24982°
Longitude
-20.11982°
Altitude
35,789.406 km
Speed
3.074 km/s
True Right ascension
04h 44m 12s
True Declination
0° 14' 58"
Sunlit
Object was in daylight at epoch
Visualization orbit readout
Latitude
Unknown
Longitude
Unknown
Altitude
Unknown
Speed
Unknown
Apparent Right ascension
Unknown
Apparent Declination
Unknown
Sunlit
N/A
Visualization observer readout
Local Sidereal Time
13:29:49
Azimuth
Unknown
Elevation
Unknown
Doppler factor
Unknown
Orbital elements
Apogee altitude
35,799.862 km
Perigee altitude
35,775.465 km
Semi-major axis
42,165.8 km
Eccentricity
0.00029
Inclination
0.8443°
RAAN
86.5365°
Arg. of periapsis
90.1717°
True anomaly
254.34378°
Mean anomaly
254.3757°
Eccentric anomaly
254.35974°
Mean motion
0.25067 °/min
Orbital period
1,436.15 mins
BSTAR
0
Loading maneuver chart data...
Computing Atmospheric mass density...
Loading historical data...
Loading historical data...
Loading historical data...
Loading historical data...
Loading historical data...
Loading historical data...
Loading historical data...
Other satellites on launch #12 in the year 2018 (2018-01-25 UTC)

Documentation

Showing up to 5 results
|